Location: Achterbroek
(51.4288°N, 5.6875°E)
Time: 07:14:11
(UTC+00:00)

Daily predictions for brighter satellites

Satellite Brightness Start Highest point End
(mag) Time Altitude Azimuth Time Altitude Azimuth Time Altitude Azimuth
USA 267 3.7 19:41:39 10° ENE 19:47:46 40° SE 19:53:51 10° SSW
GP-B 4.4 19:45:26 10° NNE 19:49:01 23° E 19:52:34 10° SE
IRIDIUM 103 4.4 19:46:00 10° SSE 19:51:09 62° E 19:56:19 10° N
Cosmos 1821 Rocket 4.2 19:47:26 10° SSE 19:53:21 53° E 19:59:23 10° NNE
Shenzhou-11 Module 3.8 19:53:17 10° SSW 19:54:03 11° S 19:54:49 10° SSE
COSMOS 2406 3.4 19:49:33 10° S 19:55:06 52° ESE 20:00:40 10° NE
CZ-2C R/B 3.8 19:50:43 10° NNE 19:55:21 64° ESE 19:59:52 10° S
Cosmos 1743 Rocket 3.9 19:51:54 10° SSW 19:56:20 73° WNW 20:00:50 10° N
SL-16 R/B 3.9 19:52:00 10° NNW 19:56:27 23° NE 20:00:52 10° E
Intercosmos 25 3.5 19:52:06 10° N 19:57:05 70° ENE 20:00:34 10° SSE
Cosmos 2366 rocket 4.4 19:51:04 10° SSW 19:57:17 70° WNW 20:03:30 10° N
Lacrosse 5 2.7 19:54:58 10° WNW 19:59:55 49° NNE 20:04:51 10° E
ERS-1 Rocket 4.1 19:56:35 10° ESE 20:00:53 30° ENE 20:05:13 10° N
Cosmos 2369 3.8 19:56:18 10° NNW 20:02:04 76° ENE 20:07:48 10° SE
Cosmos 1862 3.3 20:00:30 10° S 20:04:32 79° E 20:08:37 10° NNE
Sich 1 3.2 20:01:10 10° S 20:05:28 54° E 20:09:50 10° NNE
Cosmos 1818 3.8 20:01:19 10° NW 20:06:47 74° SW 20:12:13 10° SSE
BREEZE-M DEB (TANK) 2.0 20:04:44 10° WSW 20:08:03 51° S 20:09:54 11° E
IRIDIUM 106 4.3 20:04:13 10° S 20:09:26 86° E 20:14:41 10° N
Cosmos 2082 Rocket 3.0 20:05:29 10° SSE 20:10:23 31° ESE 20:15:18 10° NE
Cosmos 2278 3.9 20:05:38 10° NNW 20:11:20 63° NE 20:16:44 11° SE
Cosmos 2123 Rocket 4.2 20:05:31 10° N 20:11:38 57° ENE 20:17:46 10° SSE
Spot 2 Rocket 3.6 20:11:41 10° SSE 20:16:44 64° ENE 20:21:47 10° N
Cosmos 2322 Rocket 3.7 20:14:20 10° NNW 20:19:02 26° NE 20:23:44 10° E
Meteor 1-4 Rocket 2.6 20:16:02 10° N 20:19:29 54° ENE 20:22:26 13° SSE
Cosmos 2239 Rocket 4.4 20:16:33 10° S 20:22:38 73° E 20:28:47 10° NNE
CZ-2C R/B 3.5 20:17:59 10° N 20:23:02 53° WNW 20:28:03 10° SW
Cosmos 1184 Rocket 4.0 20:21:01 14° SE 20:23:03 24° E 20:25:49 10° NE
Cosmos 1190 Rocket 4.3 20:18:06 10° S 20:23:07 47° ESE 20:28:13 10° NE
CARTOSAT-1 4.3 20:20:05 13° SE 20:23:33 38° ENE 20:27:34 10° N
Terra 3.0 20:21:08 12° ESE 20:24:48 29° ENE 20:28:54 10° N
USA 234 3.3 20:18:46 11° ESE 20:25:04 81° SSW 20:31:40 10° WNW
Cosmos 407 Rocket 3.6 20:20:49 10° S 20:26:02 60° ESE 20:31:15 10° NNE
Cosmos 1666 Rocket 3.6 20:22:50 10° S 20:27:04 59° E 20:31:21 10° NNE
Cosmos 1238 Rocket 3.8 20:28:02 16° ESE 20:29:00 18° E 20:31:09 10° NE
Meteor 1-27 Rocket 4.0 20:24:13 10° NNW 20:30:08 79° W 20:36:04 10° S
MetOp-B 4.3 20:26:22 10° SSE 20:31:44 79° WSW 20:37:08 10° NNW
Cosmos 2360 Rocket 4.1 20:28:45 10° NNW 20:33:01 21° NE 20:37:16 10° E
Cosmos 1437 Rocket 4.3 20:30:23 10° NNE 20:33:21 21° ENE 20:35:27 14° ESE
ERBS 3.2 20:34:21 10° W 20:37:36 50° NNW 20:40:51 10° NE
Cosmos 1805 Rocket 4.3 20:34:30 10° SSW 20:38:53 57° WNW 20:43:18 10° N
USA 238 DEB 4.3 20:33:14 10° S 20:38:55 31° ESE 20:44:48 10° ENE
SPOT 5 3.1 20:35:55 17° SE 20:39:01 45° ENE 20:43:12 10° N
USA 238 4.3 20:33:22 10° S 20:39:01 31° ESE 20:44:53 10° ENE
Cosmos 1980 Rocket 2.2 20:36:49 10° NNW 20:42:33 89° ENE 20:47:05 17° SSE
SPOT 1/Viking Rocket 3.6 20:39:53 13° SSE 20:44:36 87° ENE 20:49:53 10° NNW
Cosmos 2242 Rocket 4.2 20:40:29 10° N 20:44:44 41° ENE 20:47:29 19° SE
Cosmos 1763 Rocket 4.3 20:42:21 10° NNW 20:47:26 42° NE 20:51:08 17° ESE
Genesis I 3.2 20:44:24 10° NW 20:48:18 79° SW 20:50:44 22° SE
SL-4 R/B 2.4 20:44:46 10° SW 20:48:18 33° SSE 20:51:35 10° E
BREEZE-M DEB (TANK) 2.6 20:46:09 10° WSW 20:48:56 65° SSE 20:56:25 10° E
Cosmos 405 Rocket 3.6 20:49:22 22° SE 20:50:50 29° E 20:54:06 10° NNE
ATLAS 5 CENTAUR R/B 3.9 20:46:11 10° WNW 20:51:01 28° WSW 20:56:26 10° S
Cosmos 1140 Rocket 3.4 20:46:27 10° SSW 20:51:41 75° ESE 20:56:56 10° NNE
Cosmos 2333 Rocket 4.5 20:49:05 10° NNW 20:52:47 17° NNE 20:56:29 10° ENE
Cosmos 1023 Rocket 4.5 20:50:55 10° SSW 20:56:12 82° ESE 21:01:31 10° NNE
USA 32 4.0 20:53:02 12° S 20:57:50 71° E 21:03:04 10° N
Cosmos 1697 Rocket 3.6 20:52:49 10° NW 20:58:06 43° WSW 21:03:04 11° S
Cosmos 1633 Rocket 3.2 20:55:56 10° SSW 21:00:22 80° W 21:04:50 10° N
Cosmos 1833 Rocket 2.8 20:55:13 10° SSW 21:00:51 80° WNW 21:06:32 10° NNE
Meteor 1-18 Rocket 4.3 21:00:34 10° N 21:06:11 68° ENE 21:09:50 22° SSE
Okean 1-7 3.5 21:02:14 10° N 21:06:25 44° ENE 21:08:30 25° SE
Cosmos 1867 3.7 21:01:54 10° SSW 21:07:10 54° ESE 21:12:30 10° NE
CENTAUR R/B 3.4 21:04:46 20° SSE 21:07:32 28° ESE 21:13:15 10° ENE
Resurs 01 Rocket 3.8 21:07:17 10° SW 21:10:46 22° W 21:14:17 10° NW
FALCON 9 DEB 3.6 21:10:44 10° SW 21:14:02 39° SSE 21:15:22 27° E
Meteor 2-4 Rocket 4.2 21:10:15 10° N 21:15:49 48° ENE 21:18:54 24° SE
Cosmos 1515 3.9 21:13:05 10° N 21:16:54 55° ENE 21:18:23 32° SE
deb Kosmos-1763 4.0 21:14:20 10° SSW 21:17:58 82° WNW 21:21:39 10° NNE
SL-27 R/B 4.4 21:19:37 15° E 21:19:37 15° E 21:20:50 10° ENE
Cosmos 44 4.0 21:15:14 10° NW 21:19:53 46° NE 21:23:09 19° ESE
ATLAS 5 CENTAUR R/B 2.3 21:18:06 10° NW 21:20:25 44° NE 21:23:25 18° ESE
Cosmos 676 Rocket 4.0 21:15:15 10° SSW 21:20:34 82° ESE 21:25:58 10° NNE
SWARM A 4.4 21:18:50 10° N 21:22:08 54° E 21:22:57 41° SE
Meteor 1-25 Rocket 4.1 21:17:53 13° S 21:22:52 85° E 21:28:31 10° NNE
Cosmos 1470 Rocket 3.6 21:19:31 16° SSW 21:23:05 81° W 21:27:31 10° N
GP-B 4.1 21:22:18 10° N 21:26:33 45° W 21:30:41 11° SSW
USA 267 3.3 21:24:37 10° ENE 21:31:12 86° NNW 21:37:46 10° WSW
Cosmos 921 Rocket 3.4 21:28:41 10° NNW 21:32:50 53° WSW 21:34:51 27° S
NOSS 3-2 (A) 3.4 21:27:32 10° SSW 21:33:11 61° SE 21:39:42 10° NE
NOSS 3-2 (C) 3.7 21:35:51 22° S 21:39:12 45° ESE 21:45:23 10° NE
ERS-1 Rocket 3.7 21:36:08 19° SSW 21:39:29 48° W 21:44:23 10° NNW
Cosmos 841 Rocket 3.8 21:34:22 10° NNW 21:39:32 57° ENE 21:42:00 30° SE
SAR-Lupe-2 3.8 21:36:21 10° N 21:39:56 66° WNW 21:41:55 24° SSW
Cosmos 540 Rocket 3.8 21:35:52 10° NNW 21:40:58 56° ENE 21:43:22 30° SE
OPS 6432 4.5 21:37:07 10° SW 21:41:00 77° NW 21:44:07 10° NE
SL-16 R/B 2.2 21:35:44 10° NNW 21:41:27 82° ENE 21:44:17 31° SE
Cosmos 468 Rocket 4.1 21:37:51 10° NNW 21:43:10 72° WSW 21:45:45 31° S
Lacrosse 5 1.8 21:38:06 10° WNW 21:43:12 80° SW 21:45:31 33° SE
Cosmos 1741 Rocket 4.1 21:48:23 31° S 21:50:47 59° ESE 21:55:59 10° NNE
Cosmos 1570 Rocket 4.1 21:45:31 10° NNW 21:50:51 71° ENE 21:53:10 34° SE
Cosmos 2219 Rocket 3.8 21:47:29 10° NNW 21:52:16 27° NE 21:56:38 12° E
Cosmos 2208 Rocket 4.2 21:47:40 10° NNW 21:52:58 63° ENE 21:55:11 34° SE
Cosmos 1814 Rocket 4.2 21:48:09 10° NNW 21:53:19 60° ENE 21:55:32 33° SE
Cosmos 2082 Rocket 2.9 21:48:36 10° SW 21:54:13 56° NW 21:59:49 10° NNE
Terra 2.6 22:00:02 25° SSW 22:02:23 44° W 22:06:59 10° NNW
Cosmos 2322 Rocket 2.2 21:58:04 10° NNW 22:03:49 85° WSW 22:06:13 37° SSE
Cosmos 1933 Rocket 4.5 22:01:23 18° SW 22:04:25 46° WNW 22:08:43 10° N
Cosmos 1238 Rocket 4.4 22:06:54 15° WSW 22:08:28 22° WNW 22:10:53 10° NNW
USA 234 4.2 22:06:06 24° SSW 22:08:43 31° SW 22:14:25 10° WNW
Cosmos 2100 Rocket 3.9 22:05:35 29° S 22:08:54 85° E 22:15:05 10° N
Cosmos 1437 Rocket 3.7 22:06:12 10° NNW 22:09:47 39° W 22:10:50 31° SW
Meteor 1-11 Rocket 4.1 22:09:09 36° SE 22:10:56 49° E 22:16:27 10° NNE
Cosmos 1242 Rocket 3.5 22:08:32 10° N 22:11:51 33° ENE 22:12:07 33° E
ERBS 4.2 22:11:23 10° WNW 22:14:22 30° N 22:17:20 10° ENE
Cosmos 1869 Rocket 3.5 22:13:01 43° SSW 22:14:28 84° W 22:18:58 10° N
SPOT 5 4.4 22:15:08 16° SW 22:17:22 23° W 22:20:51 10° NW
Cosmos 2360 Rocket 2.3 22:12:20 10° NNW 22:18:03 73° ENE 22:20:19 37° SE
MTI 3.8 22:15:25 10° N 22:18:29 70° WNW 22:18:29 70° WNW
COSMOS 2428 4.0 22:13:40 10° NNW 22:18:52 34° NE 22:22:37 17° E
ATLAS 3B R/B 3.1 22:21:13 34° SE 22:22:20 36° ESE 22:28:17 10° NE
Geosat 4.1 22:20:48 42° S 22:22:24 66° WSW 22:27:26 10° NW
Iridium 4 Rocket 3.1 22:21:45 44° SSW 22:23:02 71° W 22:27:16 10° N
Cosmos 2173 Rocket 4.0 22:21:11 30° SSW 22:24:29 82° W 22:30:39 10° N
CRYOSAT 2 4.3 22:20:35 10° N 22:25:29 72° E 22:26:46 48° SSE
Cosmos 1980 Rocket 4.2 22:22:06 10° WNW 22:25:47 18° W 22:28:51 12° SW
Cosmos 1500 3.4 22:25:10 51° SW 22:25:51 63° WNW 22:29:35 10° N
SL-4 R/B 1.7 22:23:54 10° WSW 22:27:13 66° WSW 22:27:13 66° WSW
ALOS 2 3.1 22:27:44 42° ESE 22:28:42 50° ENE 22:32:58 10° N
USA 238 DEB 3.8 22:22:36 10° SW 22:29:18 76° NW 22:36:20 10° NE
USA 238 3.8 22:22:43 10° SW 22:29:24 77° NW 22:36:26 10° NE
Cosmos 1725 Rocket 4.0 22:27:19 38° SSE 22:29:47 67° E 22:36:05 10° NNE
Cosmos 1674 Rocket 3.8 22:28:17 10° N 22:32:32 54° ENE 22:33:13 48° ESE
SL-08 R/B 4.4 22:32:18 40° S 22:34:37 73° E 22:40:43 10° NNE
Cosmos 1536 2.8 22:34:39 61° ESE 22:34:47 61° E 22:38:44 10° NNE
Cosmos 1666 2.5 22:37:32 80° ESE 22:37:33 80° E 22:41:19 10° NNE
Cosmos 1743 4.1 22:38:17 27° E 22:38:17 27° E 22:41:19 10° NNE
Cosmos 2333 Rocket 2.9 22:32:52 10° NNW 22:38:31 50° NE 22:41:18 28° ESE
Cosmos 1271 Rocket 3.6 22:37:02 10° N 22:40:34 37° ENE 22:40:47 36° E
Cosmos 1356 3.6 22:41:30 65° NE 22:41:30 65° NE 22:44:33 10° NNE
Meteor 1-13 Rocket 4.4 22:36:01 10° NNW 22:41:31 63° W 22:43:23 40° SSW
Cosmos 2237 Rocket 4.1 22:37:45 10° NNW 22:42:22 25° NE 22:46:58 10° E
Cosmos 2016 Rocket 4.0 22:39:51 36° SSW 22:42:42 86° W 22:49:07 10° N
Meteor 1-5 Rocket 4.5 22:40:38 31° SSW 22:43:36 72° WNW 22:49:34 10° N
Cosmos 2061 Rocket 3.9 22:41:23 36° SSW 22:44:05 85° W 22:50:21 10° N
Lacrosse 4 Rocket 3.1 22:45:23 22° E 22:45:23 22° E 22:47:40 10° ENE
MOS 1-B Rocket 3.8 22:38:28 10° NNE 22:44:16 82° WNW 22:46:43 35° SSW
Cosmos 2221 Rocket 3.9 22:41:12 10° NNW 22:45:36 57° W 22:46:29 47° SW
Cosmos 1459 Rocket 4.4 22:42:36 26° SSW 22:46:13 60° WNW 22:52:32 10° N
Okean 3 4.3 22:45:39 10° NNW 22:49:42 42° W 22:50:31 37° WSW
Cosmos 1733 Rocket 2.9 22:50:59 67° SSE 22:51:30 80° E 22:55:57 10° NNE
Cosmos 1066 Rocket 4.2 22:46:16 10° NNW 22:52:03 85° W 22:53:46 47° S
SL-27 R/B 3.4 22:53:08 38° WNW 22:53:28 40° WNW 22:56:39 10° N
Meteor 1-23 Rocket 4.2 22:47:59 10° NNW 22:53:52 86° W 22:55:42 46° S
Cosmos 44 Rocket 4.2 22:50:02 10° NW 22:54:48 46° NE 22:57:30 24° E
Thor Agena Rocket 3.4 22:50:24 10° NNE 22:55:30 87° WNW 22:57:00 48° SSW
Cosmos 1864 Rocket 4.5 22:53:22 38° SSW 22:55:55 82° W 23:02:13 10° N
CENTAUR R/B 2.7 22:51:50 13° SW 22:57:26 79° NW 23:04:50 10° NE
Cosmos 968 Rocket 4.2 22:59:01 35° ESE 22:59:19 36° ESE 23:03:58 10° NE
Cosmos 44 3.9 22:56:32 10° NW 23:01:06 40° WSW 23:01:33 39° SW
Cosmos 1802 Rocket 4.5 22:58:41 27° SW 23:02:08 57° WNW 23:08:25 10° N
Cosmos 1975 4.3 23:02:22 25° E 23:02:22 25° E 23:05:33 10° NNE
Cosmos 1378 3.2 23:08:56 10° NNW 23:12:29 75° NW 23:12:29 75° NW
USA 267 3.9 23:07:38 10° ENE 23:14:00 57° N 23:20:23 10° W
Cosmos 2233 Rocket 4.0 23:14:31 43° S 23:16:46 88° W 23:23:10 10° N
Cosmos 1842 3.8 23:13:43 10° N 23:17:33 46° ENE 23:17:41 46° E
Cosmos 1908 Rocket 3.6 23:18:33 60° ESE 23:18:47 61° E 23:23:06 10° NNE
Helios 1B rocket 4.4 23:19:02 10° NE 23:21:48 18° E 23:21:48 18° E
Cosmos 2227 Rocket 4.4 23:22:57 10° ESE 23:23:45 10° E 23:24:33 10° E
SL-16 R/B 3.8 23:20:53 10° NW 23:24:53 20° W 23:26:08 19° WSW
Lacrosse 5 3.5 23:21:45 10° WNW 23:24:41 21° WSW 23:24:41 21° WSW
Cosmos 2322 3.7 23:22:39 10° NW 23:28:17 67° WSW 23:29:31 52° S
Cosmos 1378 Rocket 3.8 23:24:03 10° NNW 23:28:26 56° W 23:28:49 54° WSW
NOSS 3-2 (C) 4.1 23:24:09 10° WSW 23:30:01 55° NNW 23:36:50 10° NE
Cosmos 1833 4.1 23:28:45 47° SSW 23:30:27 90° E 23:36:10 10° NNE
COSMOS 2487 2.9 23:32:14 58° N 23:32:14 58° N 23:35:09 10° NNE
GENESIS II 4.3 23:31:02 10° NW 23:34:38 67° WNW 23:34:38 67° WNW
Cosmos 2219 Rocket 2.1 23:31:10 10° NNW 23:36:52 80° WSW 23:38:19 52° SSE
Cosmos 2084 Rocket 4.1 23:35:30 33° W 23:37:08 53° NW 23:41:25 10° NE
EO 1 Del DPAF 4.5 23:35:58 10° N 23:39:21 32° WNW 23:39:56 30° W
Cosmos 1975 Rocket 3.0 23:37:24 10° N 23:41:55 74° ENE 23:42:25 66° SE
Cosmos 2333 4.5 23:37:01 10° NW 23:42:39 54° WSW 23:43:44 47° SSW
Okean 2 Rocket 4.4 23:45:22 28° ESE 23:45:55 29° E 23:49:48 10° NNE
Cosmos 1242 Rocket 4.5 23:43:45 10° NW 23:46:08 21° W 23:46:08 21° W
Cosmos 1503 Rocket 4.2 23:45:55 52° SSE 23:46:49 59° ESE 23:52:07 10° NNE
Cosmos 2322 Rocket 4.0 23:43:33 10° WNW 23:47:02 17° W 23:48:01 16° WSW
Cosmos 1072 Rocket 4.5 23:46:51 46° SSE 23:48:41 72° E 23:54:47 10° NNE
YAOGAN 11 4.1 23:48:26 68° SSW 23:48:57 79° WSW 23:53:35 10° NNW
Landsat 4 4.3 23:45:49 10° NNE 23:49:12 47° E 23:49:12 47° E
Helios 1A 3.0 23:49:48 63° WSW 23:49:53 64° WSW 23:54:06 10° NNW
ERBS 3.2 23:47:55 10° NW 23:51:02 47° NNE 23:51:02 47° NNE
SL-16 R/B 4.0 23:46:15 11° ESE 23:51:26 32° ENE 23:56:51 10° N
CZ-2D R/B 4.3 23:49:26 10° NE 23:52:35 15° E 23:54:54 12° ESE
SL-16 R/B 3.9 23:47:42 10° NNW 23:52:41 30° NE 23:57:38 10° ESE
Cosmos 1486 Rocket 4.0 23:52:11 51° SW 23:53:29 78° WNW 23:58:44 10° NNE
Cosmos 1544 3.3 23:54:38 68° NNW 23:54:38 68° NNW 23:58:00 10° N
